Knox, IN

3:05 PM CDT on April 22, 2018 (GMT -0500)
Starke County

Weather History for KOXI - January, 2012

Change the Weather History Date:

Tuesday, January 24, 2012

  Actual Average (KRCR) Record (KRCR)
Temperature  
Mean Temperature 32 °F -  
Max Temperature 36 °F 33 °F 42 °F (2015)
Min Temperature 27 °F 16 °F -4 °F (2014)
Degree Days  
Heating Degree Days 33    
Moisture  
Dew Point 25 °F    
Average Humidity 77    
Maximum Humidity 95    
Minimum Humidity 68    
Precipitation  
Precipitation 0.00 in - - ()
Sea Level Pressure  
Sea Level Pressure 30.15 in    
Wind  
Wind Speed 13 mph (West)    
Max Wind Speed 22 mph    
Max Gust Speed 30 mph    
Visibility 10 miles    
Events      
Averages and records for this station are not official NWS values.
T = Trace of Precipitation, MM = Missing Value Source: NWS Daily Summary

Daily Weather History Graph

Daily Weather History Graph

Search for Another Location

Airport or City:

Astronomy

Jan. 24, 2012 Rise Set
Actual Time 7:05 AM CST 4:52 PM CST
Civil Twilight 6:35 AM CST 5:22 PM CST
Nautical Twilight 6:01 AM CST 5:55 PM CST
Astronomical Twilight 5:29 AM CST 6:28 PM CST
Moon 7:32 AM CST (1/24) 6:45 PM CST (1/24)
Length of Visible Light 10h 46m
Length of Day
9h 47m
New Moon, 2% of the Moon is Illuminated
Jan 24
New Moon
Jan 30
First Quarter
Feb 7
Full
Feb 14
Last Quarter
Feb 21
New

Hourly Weather History & Observations

Time (CST) Temp. Windchill Dew Point Humidity Pressure Visibility Wind Dir Wind Speed Gust Speed Precip Events Conditions
12:15 AM 31.3 °F 21.1 °F 25.3 °F 79% 29.93 in 10.0 mi West 13.8 mph 24.2 mph N/A   Overcast
12:35 AM 31.1 °F 19.7 °F 25.5 °F 80% 29.94 in 10.0 mi West 17.3 mph 20.7 mph N/A   Overcast
12:55 AM 30.9 °F 19.8 °F 24.8 °F 78% 29.95 in 10.0 mi West 16.1 mph 20.7 mph N/A   Overcast
1:15 AM 30.7 °F 17.8 °F 24.4 °F 77% 29.95 in 10.0 mi West 21.9 mph 29.9 mph N/A   Overcast
1:35 AM 30.6 °F 18.6 °F 24.1 °F 77% 29.97 in 10.0 mi West 18.4 mph 27.6 mph N/A   Overcast
1:55 AM 30.6 °F 19.0 °F 23.9 °F 76% 29.97 in 10.0 mi West 17.3 mph 21.9 mph N/A   Overcast
2:35 AM 30.2 °F 19.3 °F 23.9 °F 77% 29.97 in 10.0 mi West 15.0 mph - N/A   Overcast
2:55 AM 30.2 °F 18.9 °F 23.5 °F 76% 29.98 in 10.0 mi West 16.1 mph - N/A   Overcast
3:15 AM 30.2 °F 18.5 °F 23.5 °F 76% 29.98 in 10.0 mi West 17.3 mph 24.2 mph N/A   Overcast
3:35 AM 30.2 °F 17.8 °F 23.2 °F 75% 29.99 in 10.0 mi West 19.6 mph - N/A   Overcast
3:55 AM 30.2 °F 19.3 °F 23.2 °F 75% 29.99 in 10.0 mi West 15.0 mph 19.6 mph N/A   Overcast
4:15 AM 30.0 °F 20.5 °F 23.5 °F 77% 30.00 in 10.0 mi West 11.5 mph - N/A   Overcast
4:35 AM 30.0 °F 20.5 °F 23.7 °F 77% 30.00 in 10.0 mi West 11.5 mph - N/A   Overcast
4:55 AM 30.2 °F 20.2 °F 23.4 °F 76% 30.01 in 10.0 mi West 12.7 mph - N/A   Overcast
5:15 AM 30.2 °F 19.8 °F 23.2 °F 75% 30.02 in 10.0 mi West 13.8 mph - N/A   Overcast
5:35 AM 30.2 °F 19.3 °F 23.4 °F 76% 30.04 in 10.0 mi West 15.0 mph 19.6 mph N/A   Overcast
6:35 AM 30.0 °F 18.7 °F 23.0 °F 75% 30.07 in 10.0 mi West 16.1 mph - N/A   Overcast
6:55 AM 29.8 °F 18.4 °F 23.0 °F 76% 30.08 in 10.0 mi West 16.1 mph - N/A   Overcast
7:15 AM 29.7 °F 20.1 °F 23.0 °F 76% 30.09 in 10.0 mi WSW 11.5 mph 23.0 mph N/A   Overcast
7:35 AM 29.8 °F 19.3 °F 22.6 °F 75% 30.10 in 10.0 mi West 13.8 mph 17.3 mph N/A   Overcast
7:55 AM 29.8 °F 20.3 °F 22.8 °F 75% 30.12 in 10.0 mi West 11.5 mph 16.1 mph N/A   Overcast
8:15 AM 29.8 °F 20.3 °F 22.8 °F 75% 30.12 in 10.0 mi West 11.5 mph 19.6 mph N/A   Overcast
8:35 AM 30.2 °F 18.9 °F 23.0 °F 75% 30.13 in 10.0 mi West 16.1 mph 19.6 mph N/A   Overcast
8:55 AM 30.6 °F 21.2 °F 23.2 °F 74% 30.14 in 10.0 mi West 11.5 mph - N/A   Overcast
9:15 AM 30.7 °F 20.0 °F 23.5 °F 75% 30.15 in 10.0 mi West 15.0 mph - N/A   Mostly Cloudy
9:35 AM 31.1 °F 21.4 °F 23.7 °F 74% 30.16 in 10.0 mi West 12.7 mph 18.4 mph N/A   Mostly Cloudy
9:55 AM 30.7 °F 20.4 °F 23.9 °F 76% 30.17 in 10.0 mi West 13.8 mph - N/A   Scattered Clouds
10:15 AM 30.7 °F 21.4 °F 23.9 °F 76% 30.18 in 10.0 mi West 11.5 mph - N/A   Mostly Cloudy
10:35 AM 31.8 °F 22.3 °F 24.3 °F 74% 30.18 in 10.0 mi West 12.7 mph - N/A   Scattered Clouds
10:55 AM 32.0 °F 22.1 °F 24.8 °F 75% 30.18 in 10.0 mi West 13.8 mph - N/A   Scattered Clouds
11:15 AM 32.4 °F 22.1 °F 25.2 °F 75% 30.18 in 10.0 mi WSW 15.0 mph - N/A   Scattered Clouds
11:55 AM 33.4 °F 24.8 °F 26.2 °F 75% 30.18 in 10.0 mi West 11.5 mph - N/A   Scattered Clouds
12:15 PM 33.8 °F 24.8 °F 26.1 °F 73% 30.17 in 10.0 mi WNW 12.7 mph - N/A   Scattered Clouds
12:35 PM 34.2 °F 25.7 °F 26.2 °F 73% 30.18 in 10.0 mi WNW 11.5 mph - N/A   Scattered Clouds
12:55 PM 34.3 °F 26.5 °F 26.1 °F 72% 30.18 in 10.0 mi West 10.4 mph - N/A   Scattered Clouds
1:15 PM 35.2 °F 27.6 °F 26.6 °F 71% 30.18 in 10.0 mi West 10.4 mph - N/A   Mostly Cloudy
1:35 PM 35.4 °F 29.0 °F 26.6 °F 70% 30.19 in 10.0 mi West 8.1 mph - N/A   Overcast
1:55 PM 35.8 °F 28.3 °F 27.1 °F 71% 30.20 in 10.0 mi WSW 10.4 mph - N/A   Mostly Cloudy
2:15 PM 35.8 °F 29.4 °F 27.0 °F 70% 30.20 in 10.0 mi West 8.1 mph - N/A   Scattered Clouds
2:35 PM 36.1 °F 28.2 °F 26.6 °F 68% 30.22 in 10.0 mi West 11.5 mph - N/A   Scattered Clouds
2:55 PM 36.5 °F 28.2 °F 27.0 °F 68% 30.23 in 10.0 mi West 12.7 mph 17.3 mph N/A   Mostly Cloudy
3:15 PM 36.0 °F 27.5 °F 27.0 °F 70% 30.23 in 10.0 mi West 12.7 mph 17.3 mph N/A   Overcast
3:35 PM 35.6 °F 28.6 °F 27.1 °F 71% 30.24 in 10.0 mi West 9.2 mph - N/A   Overcast
3:55 PM 35.4 °F 26.8 °F 27.1 °F 72% 30.25 in 10.0 mi WSW 12.7 mph - N/A   Overcast
4:15 PM 35.1 °F 27.9 °F 27.0 °F 72% 30.26 in 10.0 mi West 9.2 mph - N/A   Mostly Cloudy
4:35 PM 34.2 °F 27.5 °F 27.3 °F 76% 30.26 in 10.0 mi West 8.1 mph - N/A   Mostly Cloudy
4:55 PM 33.1 °F 27.7 °F 27.1 °F 79% 30.26 in 10.0 mi West 5.8 mph - N/A   Scattered Clouds
5:15 PM 32.2 °F 25.8 °F 27.3 °F 82% 30.27 in 10.0 mi West 6.9 mph - N/A   Clear
5:35 PM 32.0 °F 27.5 °F 27.1 °F 82% 30.27 in 10.0 mi West 4.6 mph - N/A   Clear
5:55 PM 31.8 °F 26.2 °F 27.1 °F 83% 30.27 in 10.0 mi West 5.8 mph - N/A   Clear
6:15 PM 31.1 °F 25.4 °F 27.1 °F 85% 30.28 in 10.0 mi WSW 5.8 mph - N/A   Clear
6:35 PM 30.9 °F 25.2 °F 27.1 °F 86% 30.29 in 10.0 mi West 5.8 mph - N/A   Clear
6:55 PM 30.6 °F 24.7 °F 26.8 °F 86% 30.29 in 10.0 mi West 5.8 mph - N/A   Clear
7:15 PM 30.2 °F 26.7 °F 26.8 °F 87% 30.29 in 10.0 mi WSW 3.5 mph - N/A   Clear
7:35 PM 30.0 °F 26.5 °F 27.0 °F 88% 30.30 in 10.0 mi West 3.5 mph - N/A   Clear
7:55 PM 28.8 °F - 26.1 °F 90% 30.32 in 10.0 mi Calm Calm - N/A   Clear
8:15 PM 28.0 °F - 26.1 °F 92% 30.32 in 10.0 mi Calm Calm - N/A   Clear
8:35 PM 28.4 °F - 26.4 °F 92% 30.33 in 10.0 mi Calm Calm - N/A   Clear
8:55 PM 28.0 °F - 26.2 °F 93% 30.34 in 10.0 mi Calm Calm - N/A   Clear
9:15 PM 27.3 °F - 26.1 °F 95% 30.33 in 7.0 mi Calm Calm - N/A   Clear
9:35 PM 27.3 °F - 25.9 °F 94% 30.31 in 7.0 mi Calm Calm - N/A   Clear
9:55 PM 25.7 °F - 24.8 °F 96% 30.30 in 7.0 mi Calm Calm - N/A   Clear
10:15 PM 25.7 °F - 25.2 °F 98% 30.31 in 5.0 mi Calm Calm - N/A   Clear
10:55 PM 25.2 °F - 24.4 °F 97% 30.31 in 4.0 mi Calm Calm - N/A   Clear
11:15 PM 23.7 °F - 23.0 °F 97% 30.32 in 3.0 mi Calm Calm - N/A   Clear
11:35 PM 23.7 °F - 23.2 °F 98% 30.32 in 4.0 mi Calm Calm - N/A   Clear
11:55 PM 24.1 °F 19.7 °F 23.5 °F 98% 30.33 in 4.0 mi South 3.5 mph - N/A   Clear